EA2AFZ-W Weather Reports


Display with metric or nautical units.
time (UTC)temp
F
wind
direction
speed
MPH
gust
MPH
rain 1hr
in
rain 24hr
in
rain mn
in
humidity
%
barometer
mb
20260510171548 64 90 5.0 5.0 0.00 0.00 0.00 60 1008.0
20260510164545 65 90 6.0 6.0 0.00 0.00 0.00 57 1008.0
20260510161543 64 70 5.0 5.0 0.00 0.00 0.00 56 1008.0
20260510154542 62 130 8.0 8.0 0.00 0.00 0.00 55 1008.0
20260510151538 62 130 8.0 8.0 0.00 0.00 0.00 57 1009.0
20260510144537 60 110 8.0 8.0 0.00 0.00 0.00 61 1009.0
20260510141535 55 60 8.0 8.0 0.00 0.00 0.00 68 1010.0
20260510134532 55 250 6.0 6.0 0.00 0.00 0.00 72 1010.0
20260510131529 61 230 15.0 15.0 0.00 0.00 0.00 66 1010.0
20260510124528 69 250 5.0 5.0 0.00 0.00 0.00 39 1008.0
20260510121525 69 81 5.0 5.0 0.00 0.00 0.00 39 1009.0
20260510114523 69 0 5.0 5.0 0.00 0.00 0.00 39 1009.0
20260510111522 69 0 5.0 5.0 0.00 0.00 0.00 38 1009.0
20260510104519 68 0 5.0 5.0 0.00 0.00 0.00 41 1009.0
20260510101518 68 323 4.0 4.0 0.00 0.00 0.00 43 1010.0
20260510094515 65 338 8.0 8.0 0.00 0.00 0.00 45 1010.0
20260510091513 64 338 8.0 8.0 0.00 0.00 0.00 47 1010.0
20260510084511 64 250 8.0 8.0 0.00 0.00 0.00 48 1010.0
20260510081508 64 250 5.0 5.0 0.00 0.00 0.00 48 1009.0
20260510074507 63 329 5.0 5.0 0.00 0.00 0.00 50 1009.0
20260510071604 60 240 5.0 5.0 0.00 0.00 0.00 53 1009.0
20260510064603 60 240 5.0 5.0 0.00 0.00 0.00 55 1009.0
20260510061601 58 150 8.0 8.0 0.00 0.00 0.00 59 1009.0
20260510054558 58 150 8.0 8.0 0.00 0.00 0.00 64 1008.0
20260510051555 59 150 8.0 8.0 0.00 0.00 0.00 62 1008.0
20260510044553 59 150 8.0 8.0 0.00 0.00 0.00 64 1008.0
20260510041552 59 150 8.0 8.0 0.00 0.00 0.00 62 1008.0
20260510034550 60 150 8.0 8.0 0.00 0.00 0.00 61 1008.0
20260510031547 60 150 8.0 8.0 0.00 0.00 0.00 61 1008.0
20260510024545 59 150 8.0 8.0 0.00 0.00 0.00 63 1008.0
20260510021543 59 150 9.0 9.0 0.00 0.00 0.00 61 1008.0
20260510014541 59 150 9.0 9.0 0.00 0.00 0.00 62 1009.0
20260510011538 56 200 11.0 11.0 0.00 0.00 0.00 61 1008.0
20260510004536 57 200 11.0 11.0 0.00 0.00 0.00 63 1008.0
20260510001535 57 200 11.0 11.0 0.00 0.00 0.00 67 1008.0
20260509234533 58 200 11.0 11.0 0.00 0.00 0.00 74 1009.0
20260509231530 59 200 11.0 11.0 0.00 0.00 0.00 79 1008.0
20260509224528 59 200 11.0 11.0 0.00 0.00 0.00 78 1008.0
20260509221526 59 200 11.0 11.0 0.00 0.00 0.00 78 1008.0
20260509214524 59 200 11.0 11.0 0.00 0.00 0.00 76 1008.0
20260509211522 59 200 11.0 11.0 0.00 0.00 0.00 77 1008.0
20260509204519 59 200 11.0 11.0 0.00 0.00 0.00 77 1008.0
20260509201517 61 200 11.0 11.0 0.00 0.00 0.00 80 1007.0
20260509194515 61 200 11.0 11.0 0.00 0.00 0.00 76 1007.0
20260509191513 60 200 11.0 11.0 0.00 0.00 0.00 69 1007.0
20260509184510 61 200 11.0 11.0 0.00 0.00 0.00 68 1007.0
20260509181508 63 200 11.0 11.0 0.00 0.00 0.00 70 1007.0
20260509174507 64 200 11.0 11.0 0.00 0.00 0.00 62 1007.0